Simultaneous Nadir Overpasses (SNOs) Predictions

Prediction of SNOs between LANDSAT-8 and METOP-A Satellite Orbit:

Table of predicted SNOs for the next 14.0 days since TLE Epoch: 3/21/2020
Index Date (LANDSAT-8) Time (LANDSAT-8) Lat,Lon (LANDSAT-8) SZA (LANDSAT-8 ) Date (METOP-A) Time (METOP-A) Lat,Lon (METOP-A) SZA (METOP-A ) Distance(km) Time Diff (sec)
1 03/21/2020 05:02:37 -81.48, -29.73 96.56 03/21/2020 05:02:20 -81.49, -29.70 96.56 0.89 17
2 03/21/2020 05:52:03 81.49, 138.04 83.45 03/21/2020 05:53:00 81.48, 138.06 83.48 0.62 57
3 03/24/2020 00:36:50 -81.49, 37.00 97.60 03/24/2020 00:36:42 -81.48, 37.03 97.61 1.26 8
4 03/24/2020 01:26:17 81.48,-155.66 82.35 03/24/2020 01:27:23 81.48,-155.63 82.39 0.59 66
5 03/26/2020 19:21:37 81.49, -64.29 81.33 03/26/2020 19:20:25 81.49, -64.24 81.30 0.88 72
6 03/26/2020 20:11:04 -81.49, 103.30 98.70 03/26/2020 20:11:05 -81.48, 103.35 98.69 0.93 1
7 03/29/2020 14:55:51 81.48, 1.95 80.23 03/29/2020 14:54:48 81.49, 2.03 80.22 1.56 63
8 03/29/2020 15:45:18 -81.48, 169.57 99.79 03/29/2020 15:45:28 -81.48, 169.66 99.77 1.49 10
9 04/01/2020 10:30:03 81.49, 68.55 79.19 04/01/2020 10:29:09 81.48, 68.69 79.18 2.40 54




NCC Satellite Simultaneous Nadir Overpasses (SNOs) Prediction Service
